カタログに戻る

PSLV R/B

運用中SSO
NORAD 39093·ROCKET BODY·🇮🇳 India

打ち上げ Feb 25, 2013 から Satish Dhawan Space Centre

Loading…

次のパス (今後24時間)

TLE

最新Source: Space-Track

元期: Sep 14, 2026, 00:26 UTC

1 39093U 13009H   26257.01831367  .00000202  00000-0  63866-4 0  9995
2 39093  98.0469  95.5632 0044814 123.9764 236.5701 14.48768994715552

AllMySatでPSLV R/Bをリアルタイム追跡

Download on the App Store